Time,TemperatureF,DewpointF,PressureIn,WindDirection,WindDirectionDegrees,WindSpeedMPH,WindSpeedGustMPH,Humidity,HourlyPrecipIn,Conditions,Clouds,dailyrainin,SoftwareType,DateUTC
2013-04-05 00:02:00,36.0,29.0,-100.00,South,185,3.0,3.0,74,-99.99,,,-99.99,,2013-04-05 05:02:00,
2013-04-05 00:12:00,36.0,29.0,-100.00,SSW,195,2.0,2.0,75,-99.99,,,-99.99,,2013-04-05 05:12:00,
2013-04-05 00:22:00,36.0,29.0,-100.00,SSW,195,2.0,2.0,75,-99.99,,,-99.99,,2013-04-05 05:22:00,
2013-04-05 00:42:00,35.0,29.0,-100.00,South,185,2.0,2.0,79,-99.99,,,-99.99,,2013-04-05 05:42:00,
2013-04-05 00:53:00,35.0,29.0,-100.00,South,185,3.0,3.0,81,-99.99,,,-99.99,,2013-04-05 05:53:00,
2013-04-05 01:02:00,35.0,29.0,-100.00,South,185,3.0,3.0,81,-99.99,,,-99.99,,2013-04-05 06:02:00,
2013-04-05 01:12:00,34.0,29.0,-100.00,South,185,2.0,3.0,82,-99.99,,,-99.99,,2013-04-05 06:12:00,
2013-04-05 01:22:00,34.0,29.0,-100.00,South,185,2.0,3.0,82,-99.99,,,-99.99,,2013-04-05 06:22:00,
2013-04-05 01:32:00,34.0,29.0,-100.00,South,185,2.0,3.0,82,-99.99,,,-99.99,,2013-04-05 06:32:00,
2013-04-05 01:42:00,34.0,29.0,-100.00,South,185,2.0,3.0,82,-99.99,,,-99.99,,2013-04-05 06:42:00,
2013-04-05 01:52:00,33.0,29.0,-100.00,South,190,2.0,3.0,85,-99.99,,,-99.99,,2013-04-05 06:52:00,
2013-04-05 02:02:00,33.0,29.0,-100.00,South,190,2.0,3.0,85,-99.99,,,-99.99,,2013-04-05 07:02:00,
2013-04-05 02:12:00,33.0,29.0,-100.00,South,190,2.0,2.0,86,-99.99,,,-99.99,,2013-04-05 07:12:00,
2013-04-05 02:22:00,33.0,29.0,-100.00,SSW,200,2.0,3.0,87,-99.99,,,-99.99,,2013-04-05 07:22:00,
2013-04-05 02:32:00,33.0,29.0,-100.00,SSW,200,2.0,3.0,87,-99.99,,,-99.99,,2013-04-05 07:32:00,
2013-04-05 02:42:00,32.0,29.0,-100.00,South,185,2.0,3.0,88,-99.99,,,-99.99,,2013-04-05 07:42:00,
2013-04-05 02:53:00,32.0,29.0,-100.00,South,185,2.0,3.0,88,-99.99,,,-99.99,,2013-04-05 07:53:00,
2013-04-05 03:02:00,32.0,29.0,-100.00,South,185,2.0,3.0,88,-99.99,,,-99.99,,2013-04-05 08:02:00,
2013-04-05 03:13:00,32.0,29.0,-100.00,South,185,1.0,3.0,89,-99.99,,,-99.99,,2013-04-05 08:13:00,
2013-04-05 03:22:00,32.0,29.0,-100.00,SSW,195,1.0,2.0,89,-99.99,,,-99.99,,2013-04-05 08:22:00,
2013-04-05 03:32:00,32.0,29.0,-100.00,SSW,195,1.0,2.0,89,-99.99,,,-99.99,,2013-04-05 08:32:00,
2013-04-05 03:43:00,32.0,29.0,-100.00,South,185,1.0,2.0,89,-99.99,,,-99.99,,2013-04-05 08:43:00,
2013-04-05 03:52:00,31.0,29.0,-100.00,South,185,1.0,2.0,90,-99.99,,,-99.99,,2013-04-05 08:52:00,
2013-04-05 04:02:00,31.0,29.0,-100.00,South,185,1.0,2.0,90,-99.99,,,-99.99,,2013-04-05 09:02:00,
2013-04-05 04:12:00,31.0,29.0,-100.00,South,180,1.0,2.0,90,-99.99,,,-99.99,,2013-04-05 09:12:00,
2013-04-05 04:22:00,31.0,29.0,-100.00,South,185,2.0,3.0,90,-99.99,,,-99.99,,2013-04-05 09:22:00,
2013-04-05 04:33:00,31.0,29.0,-100.00,South,185,2.0,3.0,90,-99.99,,,-99.99,,2013-04-05 09:33:00,
2013-04-05 04:43:00,31.0,29.0,-100.00,South,180,1.0,1.0,90,-99.99,,,-99.99,,2013-04-05 09:43:00,
2013-04-05 04:53:00,31.0,28.0,-100.00,South,180,2.0,3.0,90,-99.99,,,-99.99,,2013-04-05 09:53:00,
2013-04-05 05:03:00,31.0,28.0,-100.00,South,180,2.0,3.0,90,-99.99,,,-99.99,,2013-04-05 10:03:00,
2013-04-05 05:13:00,31.0,29.0,-100.00,South,180,2.0,2.0,91,-99.99,,,-99.99,,2013-04-05 10:13:00,
2013-04-05 05:23:00,31.0,28.0,-100.00,South,180,3.0,3.0,91,-99.99,,,-99.99,,2013-04-05 10:23:00,
2013-04-05 05:33:00,31.0,28.0,-100.00,South,180,3.0,3.0,91,-99.99,,,-99.99,,2013-04-05 10:33:00,
2013-04-05 05:43:00,31.0,28.0,-100.00,South,175,3.0,3.0,91,-99.99,,,-99.99,,2013-04-05 10:43:00,
2013-04-05 05:53:00,31.0,28.0,-100.00,South,175,1.0,2.0,91,-99.99,,,-99.99,,2013-04-05 10:53:00,
2013-04-05 06:02:00,31.0,28.0,-100.00,South,175,1.0,2.0,91,-99.99,,,-99.99,,2013-04-05 11:02:00,
2013-04-05 06:13:00,31.0,28.0,-100.00,South,175,2.0,3.0,91,-99.99,,,-99.99,,2013-04-05 11:13:00,
2013-04-05 06:22:00,31.0,28.0,-100.00,South,180,1.0,2.0,91,-99.99,,,-99.99,,2013-04-05 11:22:00,
2013-04-05 06:33:00,31.0,28.0,-100.00,South,180,1.0,2.0,91,-99.99,,,-99.99,,2013-04-05 11:33:00,
2013-04-05 06:42:00,31.0,28.0,-100.00,South,190,2.0,2.0,91,-99.99,,,-99.99,,2013-04-05 11:42:00,
2013-04-05 06:52:00,30.0,28.0,-100.00,South,180,1.0,3.0,91,-99.99,,,-99.99,,2013-04-05 11:52:00,
2013-04-05 07:02:00,30.0,28.0,-100.00,South,180,1.0,3.0,91,-99.99,,,-99.99,,2013-04-05 12:02:00,
2013-04-05 07:12:00,31.0,28.0,-100.00,SW,220,1.0,2.0,91,-99.99,,,-99.99,,2013-04-05 12:12:00,
2013-04-05 07:22:00,31.0,28.0,-100.00,South,175,2.0,2.0,91,-99.99,,,-99.99,,2013-04-05 12:22:00,
2013-04-05 07:32:00,31.0,28.0,-100.00,South,175,2.0,2.0,91,-99.99,,,-99.99,,2013-04-05 12:32:00,
2013-04-05 07:42:00,31.0,28.0,-100.00,South,175,2.0,2.0,91,-99.99,,,-99.99,,2013-04-05 12:42:00,
2013-04-05 07:52:00,32.0,30.0,-100.00,South,190,0.0,1.0,91,-99.99,,,-99.99,,2013-04-05 12:52:00,
2013-04-05 08:02:00,32.0,30.0,-100.00,South,190,0.0,1.0,91,-99.99,,,-99.99,,2013-04-05 13:02:00,
2013-04-05 08:12:00,34.0,31.0,-100.00,SW,235,0.0,1.0,90,-99.99,,,-99.99,,2013-04-05 13:12:00,
2013-04-05 08:23:00,37.0,33.0,-100.00,WNW,285,0.0,1.0,86,-99.99,,,-99.99,,2013-04-05 13:23:00,
2013-04-05 08:32:00,37.0,33.0,-100.00,WNW,285,0.0,1.0,86,-99.99,,,-99.99,,2013-04-05 13:32:00,
2013-04-05 08:42:00,42.0,34.0,-100.00,West,265,1.0,1.0,75,-99.99,,,-99.99,,2013-04-05 13:42:00,
2013-04-05 08:52:00,47.0,31.0,-100.00,West,265,2.0,3.0,52,-99.99,,,-99.99,,2013-04-05 13:52:00,
2013-04-05 09:03:00,47.0,31.0,-100.00,West,265,2.0,3.0,52,-99.99,,,-99.99,,2013-04-05 14:03:00,
2013-04-05 09:12:00,51.0,28.0,-100.00,NW,305,6.0,10.0,41,-99.99,,,-99.99,,2013-04-05 14:12:00,
2013-04-05 09:23:00,53.0,26.0,-100.00,WNW,290,9.0,10.0,35,-99.99,,,-99.99,,2013-04-05 14:23:00,
2013-04-05 09:36:00,53.0,26.0,-100.00,WNW,290,9.0,10.0,35,-99.99,,,-99.99,,2013-04-05 14:36:00,
2013-04-05 09:43:00,54.0,26.0,-100.00,NW,305,9.0,10.0,33,-99.99,,,-99.99,,2013-04-05 14:43:00,
2013-04-05 09:54:00,55.0,26.0,-100.00,WNW,295,6.0,10.0,32,-99.99,,,-99.99,,2013-04-05 14:54:00,
2013-04-05 10:02:00,55.0,26.0,-100.00,WNW,295,6.0,10.0,32,-99.99,,,-99.99,,2013-04-05 15:02:00,
2013-04-05 10:12:00,57.0,27.0,-100.00,North,5,1.0,4.0,31,-99.99,,,-99.99,,2013-04-05 15:12:00,
2013-04-05 10:23:00,57.0,25.0,-100.00,North,0,4.0,6.0,29,-99.99,,,-99.99,,2013-04-05 15:23:00,
2013-04-05 10:33:00,57.0,25.0,-100.00,North,0,4.0,6.0,29,-99.99,,,-99.99,,2013-04-05 15:33:00,
2013-04-05 10:43:00,59.0,26.0,-100.00,North,0,1.0,3.0,28,-99.99,,,-99.99,,2013-04-05 15:43:00,
2013-04-05 10:54:00,60.0,26.0,-100.00,WNW,290,6.0,9.0,27,-99.99,,,-99.99,,2013-04-05 15:54:00,
2013-04-05 11:02:00,60.0,26.0,-100.00,WNW,290,6.0,9.0,27,-99.99,,,-99.99,,2013-04-05 16:02:00,
2013-04-05 11:13:00,61.0,26.0,-100.00,WNW,285,2.0,3.0,26,-99.99,,,-99.99,,2013-04-05 16:13:00,
2013-04-05 11:23:00,62.0,26.0,-100.00,West,280,8.0,9.0,25,-99.99,,,-99.99,,2013-04-05 16:23:00,
2013-04-05 11:33:00,62.0,26.0,-100.00,West,280,8.0,9.0,25,-99.99,,,-99.99,,2013-04-05 16:33:00,
2013-04-05 11:42:00,63.0,26.0,-100.00,NW,325,4.0,8.0,24,-99.99,,,-99.99,,2013-04-05 16:42:00,
2013-04-05 11:53:00,63.0,26.0,-100.00,WNW,290,6.0,9.0,24,-99.99,,,-99.99,,2013-04-05 16:53:00,
2013-04-05 12:03:00,63.0,26.0,-100.00,WNW,290,6.0,9.0,24,-99.99,,,-99.99,,2013-04-05 17:03:00,
2013-04-05 12:13:00,66.0,28.0,-100.00,West,270,4.0,6.0,24,-99.99,,,-99.99,,2013-04-05 17:13:00,
2013-04-05 12:23:00,65.0,26.0,-100.00,WNW,295,8.0,10.0,23,-99.99,,,-99.99,,2013-04-05 17:23:00,
2013-04-05 12:32:00,65.0,26.0,-100.00,WNW,295,8.0,10.0,23,-99.99,,,-99.99,,2013-04-05 17:32:00,
2013-04-05 12:45:00,64.0,26.0,-100.00,WNW,300,4.0,9.0,23,-99.99,,,-99.99,,2013-04-05 17:45:00,
2013-04-05 12:53:00,64.0,26.0,-100.00,NNW,335,12.0,16.0,23,-99.99,,,-99.99,,2013-04-05 17:53:00,
2013-04-05 13:02:00,64.0,26.0,-100.00,NNW,335,12.0,16.0,23,-99.99,,,-99.99,,2013-04-05 18:02:00,
2013-04-05 13:12:00,64.0,25.0,-100.00,NW,305,11.0,16.0,23,-99.99,,,-99.99,,2013-04-05 18:12:00,
2013-04-05 13:23:00,65.0,27.0,-100.00,NW,305,9.0,11.0,24,-99.99,,,-99.99,,2013-04-05 18:23:00,
2013-04-05 13:33:00,65.0,27.0,-100.00,NW,305,9.0,11.0,24,-99.99,,,-99.99,,2013-04-05 18:33:00,
2013-04-05 13:43:00,64.0,26.0,-100.00,NNW,330,9.0,12.0,24,-99.99,,,-99.99,,2013-04-05 18:43:00,
2013-04-05 13:53:00,65.0,28.0,-100.00,West,280,10.0,21.0,25,-99.99,,,-99.99,,2013-04-05 18:53:00,
2013-04-05 14:02:00,65.0,28.0,-100.00,West,280,10.0,21.0,25,-99.99,,,-99.99,,2013-04-05 19:02:00,
2013-04-05 14:13:00,65.0,29.0,-100.00,NW,325,4.0,6.0,26,-99.99,,,-99.99,,2013-04-05 19:13:00,
2013-04-05 14:23:00,66.0,30.0,-100.00,NNW,335,10.0,14.0,26,-99.99,,,-99.99,,2013-04-05 19:23:00,
2013-04-05 14:33:00,66.0,30.0,-100.00,NNW,335,10.0,14.0,26,-99.99,,,-99.99,,2013-04-05 19:33:00,
2013-04-05 14:42:00,66.0,30.0,-100.00,NNW,330,4.0,9.0,26,-99.99,,,-99.99,,2013-04-05 19:42:00,
2013-04-05 14:53:00,66.0,30.0,-100.00,North,5,1.0,6.0,26,-99.99,,,-99.99,,2013-04-05 19:53:00,
2013-04-05 15:02:00,66.0,30.0,-100.00,North,5,1.0,6.0,26,-99.99,,,-99.99,,2013-04-05 20:02:00,
2013-04-05 15:11:00,66.0,30.0,-100.00,WNW,285,6.0,8.0,26,-99.99,,,-99.99,,2013-04-05 20:11:00,
2013-04-05 15:22:00,67.0,31.0,-100.00,North,5,6.0,9.0,26,-99.99,,,-99.99,,2013-04-05 20:22:00,
2013-04-05 15:33:00,67.0,30.0,-100.00,NW,320,6.0,12.0,25,-99.99,,,-99.99,,2013-04-05 20:33:00,
2013-04-05 15:42:00,67.0,30.0,-100.00,NW,320,6.0,12.0,25,-99.99,,,-99.99,,2013-04-05 20:42:00,
2013-04-05 15:52:00,67.0,29.0,-100.00,North,355,9.0,12.0,24,-99.99,,,-99.99,,2013-04-05 20:52:00,
2013-04-05 16:02:00,67.0,29.0,-100.00,North,355,9.0,12.0,24,-99.99,,,-99.99,,2013-04-05 21:02:00,
2013-04-05 16:13:00,68.0,30.0,-100.00,NW,310,3.0,6.0,24,-99.99,,,-99.99,,2013-04-05 21:13:00,
2013-04-05 16:23:00,67.0,29.0,-100.00,NNW,335,6.0,9.0,24,-99.99,,,-99.99,,2013-04-05 21:23:00,
2013-04-05 16:33:00,67.0,29.0,-100.00,NNW,335,6.0,9.0,24,-99.99,,,-99.99,,2013-04-05 21:33:00,
2013-04-05 16:43:00,67.0,29.0,-100.00,WNW,300,3.0,6.0,24,-99.99,,,-99.99,,2013-04-05 21:43:00,
2013-04-05 16:55:00,68.0,30.0,-100.00,North,0,9.0,12.0,24,-99.99,,,-99.99,,2013-04-05 21:55:00,
2013-04-05 17:03:00,68.0,30.0,-100.00,North,0,9.0,12.0,24,-99.99,,,-99.99,,2013-04-05 22:03:00,
2013-04-05 17:13:00,68.0,30.0,-100.00,NW,310,6.0,10.0,24,-99.99,,,-99.99,,2013-04-05 22:13:00,
2013-04-05 17:23:00,67.0,29.0,-100.00,North,350,2.0,6.0,24,-99.99,,,-99.99,,2013-04-05 22:23:00,
2013-04-05 17:33:00,67.0,29.0,-100.00,North,350,2.0,6.0,24,-99.99,,,-99.99,,2013-04-05 22:33:00,
2013-04-05 17:43:00,67.0,30.0,-100.00,NW,320,4.0,6.0,25,-99.99,,,-99.99,,2013-04-05 22:43:00,
2013-04-05 17:53:00,67.0,30.0,-100.00,NW,305,1.0,4.0,25,-99.99,,,-99.99,,2013-04-05 22:53:00,
2013-04-05 18:02:00,67.0,30.0,-100.00,NW,305,1.0,4.0,25,-99.99,,,-99.99,,2013-04-05 23:02:00,
2013-04-05 18:12:00,67.0,30.0,-100.00,North,0,3.0,4.0,25,-99.99,,,-99.99,,2013-04-05 23:12:00,
2013-04-05 18:22:00,67.0,30.0,-100.00,North,5,1.0,4.0,25,-99.99,,,-99.99,,2013-04-05 23:22:00,
2013-04-05 18:32:00,67.0,30.0,-100.00,North,5,1.0,4.0,25,-99.99,,,-99.99,,2013-04-05 23:32:00,
2013-04-05 18:42:00,66.0,29.0,-100.00,NNW,340,4.0,6.0,25,-99.99,,,-99.99,,2013-04-05 23:42:00,
2013-04-05 18:53:00,66.0,30.0,-100.00,North,10,3.0,4.0,26,-99.99,,,-99.99,,2013-04-05 23:53:00,
2013-04-05 19:02:00,66.0,30.0,-100.00,North,10,3.0,4.0,26,-99.99,,,-99.99,,2013-04-06 00:02:00,
2013-04-05 19:13:00,65.0,30.0,-100.00,North,0,6.0,9.0,26,-99.99,,,-99.99,,2013-04-06 00:13:00,
2013-04-05 19:23:00,64.0,29.0,-100.00,North,350,3.0,6.0,27,-99.99,,,-99.99,,2013-04-06 00:23:00,
2013-04-05 19:33:00,64.0,29.0,-100.00,North,350,3.0,6.0,27,-99.99,,,-99.99,,2013-04-06 00:33:00,
2013-04-05 19:42:00,64.0,29.0,-100.00,North,350,3.0,6.0,27,-99.99,,,-99.99,,2013-04-06 00:42:00,
2013-04-05 19:52:00,61.0,28.0,-100.00,North,0,0.0,1.0,28,-99.99,,,-99.99,,2013-04-06 00:52:00,
2013-04-05 20:02:00,61.0,28.0,-100.00,North,0,0.0,1.0,28,-99.99,,,-99.99,,2013-04-06 01:02:00,
2013-04-05 20:13:00,60.0,28.0,-100.00,North,5,1.0,1.0,30,-99.99,,,-99.99,,2013-04-06 01:13:00,
2013-04-05 20:22:00,58.0,28.0,-100.00,NE,40,0.0,0.0,32,-99.99,,,-99.99,,2013-04-06 01:22:00,
2013-04-05 20:33:00,58.0,28.0,-100.00,NE,40,0.0,0.0,32,-99.99,,,-99.99,,2013-04-06 01:33:00,
2013-04-05 20:43:00,56.0,28.0,-100.00,East,95,1.0,1.0,34,-99.99,,,-99.99,,2013-04-06 01:43:00,
2013-04-05 20:53:00,55.0,29.0,-100.00,ENE,60,0.0,3.0,37,-99.99,,,-99.99,,2013-04-06 01:53:00,
2013-04-05 21:02:00,55.0,29.0,-100.00,ENE,60,0.0,3.0,37,-99.99,,,-99.99,,2013-04-06 02:02:00,
2013-04-05 21:12:00,54.0,30.0,-100.00,East,80,0.0,1.0,39,-99.99,,,-99.99,,2013-04-06 02:12:00,
2013-04-05 21:22:00,53.0,30.0,-100.00,NW,315,0.0,0.0,40,-99.99,,,-99.99,,2013-04-06 02:22:00,
2013-04-05 21:32:00,53.0,30.0,-100.00,NW,315,0.0,0.0,40,-99.99,,,-99.99,,2013-04-06 02:32:00,
2013-04-05 21:42:00,51.0,31.0,-100.00,WNW,290,0.0,0.0,46,-99.99,,,-99.99,,2013-04-06 02:42:00,
2013-04-05 21:53:00,51.0,33.0,-100.00,ENE,60,1.0,2.0,49,-99.99,,,-99.99,,2013-04-06 02:53:00,
2013-04-05 22:02:00,51.0,33.0,-100.00,ENE,60,1.0,2.0,49,-99.99,,,-99.99,,2013-04-06 03:02:00,
2013-04-05 22:12:00,51.0,33.0,-100.00,ENE,70,1.0,2.0,50,-99.99,,,-99.99,,2013-04-06 03:12:00,
2013-04-05 22:22:00,50.0,33.0,-100.00,ENE,60,1.0,3.0,52,-99.99,,,-99.99,,2013-04-06 03:22:00,
2013-04-05 22:34:00,50.0,33.0,-100.00,ENE,60,1.0,3.0,52,-99.99,,,-99.99,,2013-04-06 03:34:00,
2013-04-05 22:43:00,48.0,34.0,-100.00,SSW,200,3.0,3.0,58,-99.99,,,-99.99,,2013-04-06 03:43:00,
2013-04-05 22:54:00,48.0,35.0,-100.00,South,185,0.0,0.0,60,-99.99,,,-99.99,,2013-04-06 03:54:00,
2013-04-05 23:03:00,48.0,35.0,-100.00,South,185,0.0,0.0,60,-99.99,,,-99.99,,2013-04-06 04:03:00,
2013-04-05 23:14:00,48.0,35.0,-100.00,SSE,165,1.0,1.0,59,-99.99,,,-99.99,,2013-04-06 04:14:00,
2013-04-05 23:23:00,47.0,35.0,-100.00,ESE,105,0.0,0.0,62,-99.99,,,-99.99,,2013-04-06 04:23:00,
2013-04-05 23:31:00,47.0,36.0,-100.00,ESE,105,2.0,3.0,67,-99.99,,,-99.99,,2013-04-06 04:31:00,
2013-04-05 23:33:00,47.0,35.0,-100.00,ESE,105,0.0,0.0,62,-99.99,,,-99.99,,2013-04-06 04:33:00,
2013-04-05 23:42:00,47.0,35.0,-100.00,ESE,120,0.0,1.0,64,-99.99,,,-99.99,,2013-04-06 04:42:00,
2013-04-05 23:53:00,46.0,35.0,-100.00,ESE,120,1.0,2.0,66,-99.99,,,-99.99,,2013-04-06 04:53:00,